Regional Weather Roundup
Issued by NWS Sterling, VA

Home | Current Version | Previous Version | Text Only | Print | Product List | Glossary Off
Versions: 1 2 3 4 5 6 7 8 9 10 11 12 13 14 15 16 17 18 19 20 21 22 23 24 25 26 27 28 29 30 31 32 33 34 35 36 37 38 39 40 41 42 43 44 45 46 47 48 49 50

911
ASUS41 KLWX 281111
RWRLWX

REGIONAL WEATHER ROUNDUP
NATIONAL WEATHER SERVICE BALTIMORE MD/WASHINGTON DC
700 AM EDT SUN MAY 28 2017

Note: "FAIR" indicates few or no clouds below 12,000 feet
with no significant weather and/or obstructions to visibility.
 TC=TEMPERATURE CELSIUS

 * =Non NWS site. Station does not report precipitation (e.g. rain,
    snow, etc.), thunder, or fog.

DCZ001-MDZ009-015-VAZ040>042-051-053>054-281200-
WASHINGTON METRO

CITY           SKY/WX    TMP DP  RH WIND       PRES   REMARKS
WASHINGTON NAT CLOUDY    63  61  93 NE8       29.87F
DULLES         CLOUDY    62  59  90 CALM      29.88R FOG
ANDREWS AFB    MOSUNNY   60  59  97 NE5       29.86F
FT BELVOIR     CLOUDY    61  60  96 CALM      29.87S
QUANTICO       CLOUDY    65  63  93 NE8       29.87S
COLLEGE PARK*  SUNNY     59  58  97 N3        29.87F
LEESBURG*      CLOUDY    61  61 100 CALM      29.89S FOG
MANASSAS*      PTSUNNY   62  60  93 CALM      29.89R
GAITHERSBURG*  PTSUNNY   59  57  94 NE5       29.90R FOG

$$

MDZ006>007-011-014-281200-
BALTIMORE METRO

CITY           SKY/WX    TMP DP  RH WIND       PRES   REMARKS
BWI AIRPORT    PTSUNNY   62  61  96 NE7       29.88S
MD SCIENCE CTR   N/A     64  60  87 MISG      29.90R
MARTIN STATE   PTSUNNY   63  63 100 CALM      29.91R
ANNAPOLIS      SUNNY     65  60  84 CALM      29.88S
FORT MEADE*    SUNNY     55  54  94 CALM      29.91S

$$

MDZ012-015-019>023-281200-
MARYLAND EASTERN SHORE

CITY           SKY/WX    TMP DP  RH WIND       PRES   REMARKS
OCEAN CITY     MOSUNNY   63  58  83 E7        29.89R
SALISBURY      SUNNY     60  58  92 E3        29.87F
BAY BRIDGE AP* SUNNY     63  57  82 NE3       29.89S
CAMBRIDGE*     SUNNY     61  57  88 E3        29.87S
EASTON*        MOSUNNY   59  55  88 NE5       29.92R

$$

MDZ017>025-281200-
SOUTHERN MARYLAND

CITY           SKY/WX    TMP DP  RH WIND       PRES   REMARKS
PATUXENT RIVER CLOUDY    65  61  87 E9        29.86S
ST INIGOES     CLOUDY    64  61  90 E3        29.85S
LEONARDTOWN*   MOSUNNY   61  59  94 E3        29.87S

$$

MDZ003>005-281200-
NORTH CENTRAL MARYLAND

CITY           SKY/WX    TMP DP  RH WIND       PRES   REMARKS
FREDERICK*     CLOUDY    61  61 100 N6        29.92F FOG
HAGERSTOWN APT CLOUDY    60  59  96 N3        29.89S FOG
WESTMINSTER*   CLOUDY    59  59 100 CALM      29.91S FOG

$$

MDZ501>502-281200-
WESTERN MARYLAND

CITY           SKY/WX    TMP DP  RH WIND       PRES   REMARKS
OAKLAND*       FOG       59  59 100 SE5       29.91R VSB<1/4
CUMBERLAND*    CLOUDY    61  61 100 S5        29.92R VSB 1/4

$$

VAZ025>031-281200-
SHENANDOAH VALLEY

CITY           SKY/WX    TMP DP  RH WIND       PRES   REMARKS
WINCHESTER*    FOG       59  59 100 CALM      29.88R VSB 1
FRONT ROYAL*   CLOUDY    61  61 100 N3        29.87R VSB 1/4
LURAY*         CLOUDY    63  63 100 CALM      29.87R FOG
NEW MARKET*    CLOUDY    62  61  95 CALM      29.87R
STAUNTON*      CLOUDY    62  61  95 CALM      29.90R
WAYNESBORO*    MOSUNNY   61  61 100 CALM      29.88R

$$

WVZ021-048>050-054>055-281200-
EASTERN WEST VIRGINIA PANHANDLE

CITY           SKY/WX    TMP DP  RH WIND       PRES   REMARKS
MARTINSBURG    FOG       59  58  96 CALM      29.87S VSB 1/2
PETERSBURG*    CLOUDY    65  64  99 CALM      29.87S FOG

$$

VAZ036>039-050-281200-
CENTRAL FOOTHILLS

CITY           SKY/WX    TMP DP  RH WIND       PRES   REMARKS
CHARLOTTESVILL CLOUDY    63  62  97 N5        29.86R
CULPEPER*      CLOUDY    62  62 100 NE3       29.88S FOG
ORANGE*        CLOUDY    61  61 100 NE6       29.87R FOG
GORDONSVILLE*  CLOUDY    62  62  99 CALM      29.86R
WARRENTON*     CLOUDY    63  59  87 N5        29.87R FOG

$$

VAZ055>057-281200-
NORTH AND CENTRAL PIEDMONT

CITY           SKY/WX    TMP DP  RH WIND       PRES   REMARKS
FREDERICKSBRG* CLOUDY    63  63 100 N3        29.86R
STAFFORD*      CLOUDY    62  62 100 N5        29.90S FOG

$$

NCZ024-NYZ072-PAZ021-071-VAZ022-071-281200-
OTHER REGIONAL OBSERVATIONS

CITY           SKY/WX    TMP DP  RH WIND       PRES   REMARKS
NEW YORK CITY  CLOUDY    59  57  93 E5        29.95R FOG
PHILADELPHIA   PTSUNNY   64  61  90 CALM      29.91R
PITTSBURGH     FOG       58  58 100 SE3       29.83S VSB 1/8
ROANOKE        CLOUDY    67  65  93 CALM      29.89R
RICHMOND       FOG       65  64  97 E6        29.84R VSB 1/8
RALEIGH        PTSUNNY   68  66  93 CALM      29.81R

$$

ANZ530>537-281200-
MARINE OBSERVATIONS

STATION/POSITION TIME  TEMP    WIND        PRES
                       AIR SEA DIR/SP/G
                 (UTC) (F)     (DEG/KT/KT) (MB)
THOMAS PT LIGHT  1100   63 64   50/  5/  6   N/A
BALT KEY BRIDGE  1048   62      40/  7/  8 1011.9F
COVE POINT       1048   63     100/  8/  9 1011.6F
LEWISETTA        1048   67 70  120/ 11/ 12 1010.8R
SOLOMONS ISLAND  1048   65 67   80/  8/  9   N/A
PINEY POINT      1048          110/  8/  9   N/A

$$





USA.gov is the U.S. government's official web portal to all federal, state and local government web resources and services.